When you browse on this site, cookies collect data to enhance your experience and personalize the content and advertising you see.
Visit our Privacy Policy to learn more. By continuing to use the site, you agree to this use of cookies and data.
  • In Austria
  • List of Countries
  • For 7 days
  • Water Temperature
  • Weather Map
  • News
  • Weather Widgets
  • user-avatar
    Login

    Hourly Weather Santarem

    Today, 19 September, Thursday

    Time Temperature Precipitation Wind Pressure Humidity
    00:00 +16°C° 0 mm 1 mps 760 mmHg 96%
    01:00 +16°C° 0 mm 1 mps 760 mmHg 96%
    02:00 +15°C° 0 mm 1 mps 760 mmHg 96%
    03:00 +15°C° 0 mm 1 mps 760 mmHg 96%
    04:00 +15°C° 0 mm 1 mps 760 mmHg 96%
    05:00 +15°C° 0 mm 1 mps 760 mmHg 97%
    06:00 +18°C° 0 mm 1 mps 760 mmHg 89%
    07:00 +20°C° 0 mm 1 mps 760 mmHg 81%
    08:00 +22°C° 0 mm 1 mps 760 mmHg 74%
    09:00 +24°C° 0 mm 1 mps 760 mmHg 64%
    10:00 +27°C° 0 mm 1 mps 760 mmHg 55%
    11:00 +29°C° 0 mm 1 mps 760 mmHg 45%
    12:00 +29°C° 0 mm 2 mps 759 mmHg 44%
    13:00 +29°C° 0 mm 3 mps 759 mmHg 43%
    14:00 +30°C° 0 mm 3 mps 759 mmHg 41%
    15:00 +28°C° 0 mm 4 mps 758 mmHg 49%
    16:00 +26°C° 0 mm 4 mps 758 mmHg 56%
    17:00 +23°C° 0 mm 4 mps 758 mmHg 64%
    18:00 +21°C° 0 mm 3 mps 759 mmHg 73%
    19:00 +19°C° 0 mm 3 mps 759 mmHg 83%
    20:00 +17°C° 0 mm 2 mps 759 mmHg 93%
    21:00 +17°C° 0 mm 2 mps 759 mmHg 94%
    22:00 +16°C° 0 mm 1 mps 759 mmHg 95%
    23:00 +16°C° 0 mm 1 mps 758 mmHg 95%

    Tomorrow, 20 September, Friday

    Time Temperature Precipitation Wind Pressure Humidity
    00:00 +16°C° 0 mm 1 mps 758 mmHg 95%
    01:00 +16°C° 0 mm 1 mps 758 mmHg 95%
    02:00 +16°C° 0 mm 1 mps 758 mmHg 95%
    03:00 +16°C° 0 mm 1 mps 758 mmHg 95%
    04:00 +16°C° 0 mm 1 mps 758 mmHg 95%
    05:00 +15°C° 0 mm 0 mps 757 mmHg 94%
    06:00 +16°C° 0 mm 0 mps 758 mmHg 89%
    07:00 +18°C° 0 mm 0 mps 758 mmHg 83%
    08:00 +19°C° 0 mm 0 mps 758 mmHg 77%
    09:00 +22°C° 0 mm 1 mps 758 mmHg 69%
    10:00 +24°C° 0 mm 1 mps 757 mmHg 62%
    11:00 +25°C° 0 mm 2 mps 757 mmHg 55%
    12:00 +27°C° 0 mm 2 mps 757 mmHg 48%
    13:00 +28°C° 0 mm 3 mps 756 mmHg 42%
    14:00 +30°C° 0 mm 4 mps 756 mmHg 36%
    15:00 +28°C° 0 mm 4 mps 756 mmHg 42%
    16:00 +27°C° 0 mm 4 mps 755 mmHg 48%
    17:00 +25°C° 0 mm 4 mps 755 mmHg 54%
    18:00 +22°C° 0 mm 4 mps 755 mmHg 67%
    19:00 +20°C° 0 mm 3 mps 756 mmHg 79%
    20:00 +18°C° 0 mm 2 mps 756 mmHg 92%
    21:00 +18°C° 0 mm 2 mps 756 mmHg 94%
    22:00 +18°C° 0 mm 2 mps 755 mmHg 96%
    23:00 +18°C° 0 mm 2 mps 755 mmHg 98%

    Day after tomorrow, 21 September, Saturday

    Time Temperature Precipitation Wind Pressure Humidity
    00:00 +19°C° 0 mm 2 mps 755 mmHg 96%
    01:00 +19°C° 0 mm 3 mps 755 mmHg 95%
    02:00 +20°C° 0 mm 3 mps 754 mmHg 93%
    03:00 +20°C° 0.1 mm 4 mps 754 mmHg 92%
    04:00 +20°C° 0.1 mm 4 mps 754 mmHg 91%
    05:00 +20°C° 0.1 mm 5 mps 753 mmHg 90%
    06:00 +21°C° 0.6 mm 5 mps 753 mmHg 89%
    07:00 +21°C° 0.6 mm 5 mps 754 mmHg 88%
    08:00 +21°C° 0.6 mm 6 mps 754 mmHg 87%
    09:00 +21°C° 2 mm 6 mps 754 mmHg 88%
    10:00 +21°C° 2 mm 6 mps 754 mmHg 88%
    11:00 +21°C° 2 mm 6 mps 754 mmHg 89%
    12:00 +21°C° 0.4 mm 5 mps 754 mmHg 84%
    13:00 +21°C° 0.4 mm 5 mps 754 mmHg 80%
    14:00 +21°C° 0.4 mm 5 mps 754 mmHg 75%
    15:00 +21°C° 0 mm 4 mps 754 mmHg 72%
    16:00 +20°C° 0 mm 4 mps 755 mmHg 69%
    17:00 +20°C° 0 mm 3 mps 755 mmHg 65%
    18:00 +19°C° 0 mm 3 mps 756 mmHg 73%
    19:00 +18°C° 0 mm 2 mps 757 mmHg 80%
    20:00 +16°C° 0 mm 2 mps 757 mmHg 87%
    21:00 +16°C° 0 mm 2 mps 757 mmHg 89%
    22:00 +16°C° 0 mm 1 mps 758 mmHg 91%
    23:00 +15°C° 0 mm 1 mps 758 mmHg 93%

    22 September, Sunday

    Time Temperature Precipitation Wind Pressure Humidity
    00:00 +15°C° 0 mm 1 mps 758 mmHg 93%
    01:00 +15°C° 0 mm 1 mps 758 mmHg 93%
    02:00 +15°C° 0 mm 1 mps 758 mmHg 92%
    03:00 +14°C° 0 mm 1 mps 759 mmHg 92%
    04:00 +14°C° 0 mm 1 mps 759 mmHg 91%
    05:00 +13°C° 0 mm 1 mps 759 mmHg 91%
    06:00 +15°C° 0 mm 1 mps 760 mmHg 81%
    07:00 +18°C° 0 mm 1 mps 760 mmHg 72%
    08:00 +20°C° 0 mm 1 mps 760 mmHg 62%
    09:00 +20°C° 0 mm 2 mps 761 mmHg 56%
    10:00 +23°C° 0 mm 2 mps 761 mmHg 50%
    11:00 +24°C° 0 mm 2 mps 761 mmHg 43%
    12:00 +24°C° 0 mm 3 mps 761 mmHg 42%
    13:00 +25°C° 0 mm 3 mps 761 mmHg 41%
    14:00 +25°C° 0 mm 4 mps 761 mmHg 40%
    15:00 +23°C° 0 mm 4 mps 761 mmHg 47%
    16:00 +22°C° 0 mm 4 mps 761 mmHg 54%
    17:00 +20°C° 0 mm 4 mps 761 mmHg 61%
    18:00 +19°C° 0 mm 3 mps 761 mmHg 70%
    19:00 +18°C° 0 mm 2 mps 762 mmHg 78%
    20:00 +16°C° 0 mm 2 mps 762 mmHg 86%
    21:00 +16°C° 0 mm 1 mps 762 mmHg 88%
    22:00 +16°C° 0 mm 1 mps 762 mmHg 89%
    23:00 +15°C° 0 mm 1 mps 762 mmHg 91%

    23 September, Monday

    Time Temperature Precipitation Wind Pressure Humidity
    00:00 +15°C° 0 mm 1 mps 762 mmHg 92%
    01:00 +14°C° 0 mm 0 mps 762 mmHg 92%
    02:00 +14°C° 0 mm 0 mps 762 mmHg 93%
    03:00 +13°C° 0 mm 0 mps 762 mmHg 93%
    04:00 +13°C° 0 mm 0 mps 762 mmHg 92%
    05:00 +13°C° 0 mm 0 mps 762 mmHg 92%
    06:00 +15°C° 0 mm 0 mps 762 mmHg 82%
    07:00 +17°C° 0 mm 0 mps 763 mmHg 72%
    08:00 +19°C° 0 mm 0 mps 763 mmHg 62%
    09:00 +21°C° 0 mm 0 mps 763 mmHg 53%
    10:00 +23°C° 0 mm 0 mps 763 mmHg 45%
    11:00 +27°C° 0 mm 1 mps 763 mmHg 37%
    12:00 +28°C° 0 mm 1 mps 762 mmHg 36%
    13:00 +28°C° 0 mm 1 mps 762 mmHg 36%
    14:00 +29°C° 0 mm 2 mps 761 mmHg 35%
    15:00 +27°C° 0 mm 2 mps 761 mmHg 42%
    16:00 +25°C° 0 mm 3 mps 761 mmHg 48%
    17:00 +22°C° 0 mm 3 mps 761 mmHg 55%
    18:00 +21°C° 0 mm 3 mps 761 mmHg 62%
    19:00 +19°C° 0 mm 2 mps 762 mmHg 70%
    20:00 +17°C° 0 mm 2 mps 762 mmHg 77%
    21:00 +17°C° 0 mm 2 mps 762 mmHg 79%
    22:00 +16°C° 0 mm 1 mps 761 mmHg 80%
    23:00 +16°C° 0 mm 1 mps 761 mmHg 81%

    24 September, Tuesday

    Time Temperature Precipitation Wind Pressure Humidity
    00:00 +16°C° 0 mm 1 mps 761 mmHg 82%
    01:00 +15°C° 0 mm 1 mps 761 mmHg 83%
    02:00 +15°C° 0 mm 1 mps 761 mmHg 83%
    03:00 +14°C° 0 mm 0 mps 761 mmHg 84%
    04:00 +14°C° 0 mm 0 mps 760 mmHg 85%
    05:00 +13°C° 0 mm 0 mps 760 mmHg 86%
    06:00 +16°C° 0 mm 0 mps 761 mmHg 76%
    07:00 +18°C° 0 mm 0 mps 761 mmHg 66%
    08:00 +21°C° 0 mm 0 mps 761 mmHg 56%
    09:00 +24°C° 0 mm 1 mps 761 mmHg 49%
    10:00 +26°C° 0 mm 2 mps 761 mmHg 42%
    11:00 +28°C° 0 mm 2 mps 761 mmHg 35%
    12:00 +29°C° 0 mm 3 mps 760 mmHg 36%
    13:00 +29°C° 0 mm 4 mps 760 mmHg 37%
    14:00 +29°C° 0 mm 4 mps 759 mmHg 38%
    15:00 +27°C° 0 mm 4 mps 759 mmHg 46%
    16:00 +25°C° 0 mm 4 mps 759 mmHg 54%
    17:00 +23°C° 0 mm 4 mps 759 mmHg 62%
    18:00 +21°C° 0 mm 3 mps 759 mmHg 72%
    19:00 +19°C° 0 mm 2 mps 759 mmHg 83%
    20:00 +18°C° 0 mm 2 mps 760 mmHg 94%
    21:00 +17°C° 0 mm 2 mps 759 mmHg 95%
    22:00 +18°C° 0 mm 1 mps 759 mmHg 96%
    23:00 +18°C° 0 mm 1 mps 759 mmHg 97%
    Show more